Time,TemperatureF,DewpointF,PressureIn,WindDirection,WindDirectionDegrees,WindSpeedMPH,WindSpeedGustMPH,Humidity,HourlyPrecipIn,Conditions,Clouds,dailyrainin,SoftwareType,DateUTC
2013-02-25 00:00:00,45.2,35.7,30.03,SSW,195,0.0,0.0,69,0.01,,SKC,0.00,VWS V13.01,2013-02-25 08:00:00,
2013-02-25 00:01:00,45.2,35.7,30.03,SSW,195,0.0,0.0,69,0.01,,SKC,0.00,VWS V13.01,2013-02-25 08:01:00,
2013-02-25 00:10:00,45.4,35.8,30.03,SSE,166,0.0,0.0,69,0.01,,SKC,0.00,VWS V13.01,2013-02-25 08:10:00,
2013-02-25 00:11:00,45.4,35.8,30.03,SSE,166,0.0,0.0,69,0.01,,SKC,0.00,VWS V13.01,2013-02-25 08:11:00,
2013-02-25 00:20:00,45.7,36.1,30.03,SSW,197,0.0,0.0,69,0.00,,SKC,0.00,VWS V13.01,2013-02-25 08:20:00,
2013-02-25 00:21:00,45.7,36.1,30.03,SSW,197,0.0,0.0,69,0.00,,SKC,0.00,VWS V13.01,2013-02-25 08:21:00,
2013-02-25 00:30:00,45.7,36.1,30.03,South,188,0.0,0.0,69,0.00,,SKC,0.00,VWS V13.01,2013-02-25 08:30:00,
2013-02-25 00:31:00,45.7,36.1,30.03,South,188,0.0,0.0,69,0.00,,SKC,0.00,VWS V13.01,2013-02-25 08:31:00,
2013-02-25 00:40:00,45.7,35.4,30.03,SSW,200,0.0,0.0,67,0.00,,SKC,0.00,VWS V13.01,2013-02-25 08:40:00,
2013-02-25 00:41:00,45.7,35.4,30.03,SSW,200,0.0,0.0,67,0.00,,SKC,0.00,VWS V13.01,2013-02-25 08:41:00,
2013-02-25 00:50:00,45.4,35.5,30.02,SSW,207,0.0,0.0,68,0.01,,SKC,0.01,VWS V13.01,2013-02-25 08:50:00,
2013-02-25 00:51:00,45.4,35.5,30.02,SSW,207,0.0,0.0,68,0.01,,SKC,0.01,VWS V13.01,2013-02-25 08:51:00,
2013-02-25 01:00:00,44.6,36.2,30.01,SSW,194,0.0,0.0,72,0.02,,SKC,0.02,VWS V13.01,2013-02-25 09:00:00,
2013-02-25 01:01:00,44.6,36.2,30.01,SSW,194,0.0,0.0,72,0.02,,SKC,0.02,VWS V13.01,2013-02-25 09:01:00,
2013-02-25 01:10:00,44.2,36.5,30.01,South,173,0.0,0.0,74,0.02,,SKC,0.02,VWS V13.01,2013-02-25 09:10:00,
2013-02-25 01:11:00,44.2,36.5,30.01,South,173,0.0,0.0,74,0.02,,SKC,0.02,VWS V13.01,2013-02-25 09:11:00,
2013-02-25 01:20:00,44.1,37.0,30.01,SSW,210,0.0,0.0,76,0.02,,SKC,0.02,VWS V13.01,2013-02-25 09:20:00,
2013-02-25 01:21:00,44.1,37.0,30.01,SSW,210,0.0,0.0,76,0.02,,SKC,0.02,VWS V13.01,2013-02-25 09:21:00,
2013-02-25 01:30:00,44.1,37.0,30.00,SW,217,0.0,0.0,76,0.02,,SKC,0.02,VWS V13.01,2013-02-25 09:30:00,
2013-02-25 01:31:00,44.1,37.0,30.00,SW,217,0.0,0.0,76,0.02,,SKC,0.02,VWS V13.01,2013-02-25 09:31:00,
2013-02-25 01:40:00,43.9,37.2,30.00,South,174,0.0,0.0,77,0.03,,SKC,0.03,VWS V13.01,2013-02-25 09:40:00,
2013-02-25 01:41:00,43.9,37.2,30.00,South,174,0.0,0.0,77,0.03,,SKC,0.03,VWS V13.01,2013-02-25 09:41:00,
2013-02-25 01:50:00,43.9,37.5,30.00,SSE,163,0.0,0.0,78,0.03,,SKC,0.03,VWS V13.01,2013-02-25 09:50:00,
2013-02-25 01:51:00,43.9,37.5,30.00,SSE,163,0.0,0.0,78,0.03,,SKC,0.03,VWS V13.01,2013-02-25 09:51:00,
2013-02-25 02:00:00,43.6,37.5,30.00,South,179,0.0,0.0,79,0.04,,SKC,0.05,VWS V13.01,2013-02-25 10:00:00,
2013-02-25 02:01:00,43.6,37.5,30.00,South,179,0.0,0.0,79,0.04,,SKC,0.05,VWS V13.01,2013-02-25 10:01:00,
2013-02-25 02:10:00,43.2,37.5,30.00,SW,223,0.0,0.0,80,0.05,,SKC,0.07,VWS V13.01,2013-02-25 10:10:00,
2013-02-25 02:11:00,43.2,37.5,30.00,SW,223,0.0,0.0,80,0.05,,SKC,0.07,VWS V13.01,2013-02-25 10:11:00,
2013-02-25 02:20:00,42.8,37.7,30.01,SW,236,0.0,0.0,82,0.07,,SKC,0.09,VWS V13.01,2013-02-25 10:20:00,
2013-02-25 02:21:00,42.8,37.7,30.01,SW,236,0.0,0.0,82,0.07,,SKC,0.09,VWS V13.01,2013-02-25 10:21:00,
2013-02-25 02:30:00,42.5,37.7,30.02,SSE,166,0.0,0.0,83,0.08,,SKC,0.10,VWS V13.01,2013-02-25 10:30:00,
2013-02-25 02:31:00,42.5,37.7,30.02,SSE,166,0.0,0.0,83,0.08,,SKC,0.10,VWS V13.01,2013-02-25 10:31:00,
2013-02-25 02:40:00,42.6,38.1,30.02,SSW,207,0.0,0.0,84,0.08,,SKC,0.10,VWS V13.01,2013-02-25 10:40:00,
2013-02-25 02:41:00,42.6,38.1,30.02,SSW,207,0.0,0.0,84,0.08,,SKC,0.10,VWS V13.01,2013-02-25 10:41:00,
2013-02-25 02:50:00,42.6,38.1,30.03,South,174,0.0,0.0,84,0.07,,SKC,0.10,VWS V13.01,2013-02-25 10:50:00,
2013-02-25 02:51:00,42.6,38.1,30.03,South,174,0.0,0.0,84,0.07,,SKC,0.10,VWS V13.01,2013-02-25 10:51:00,
2013-02-25 03:00:00,42.6,38.1,30.04,SSW,194,0.0,0.0,84,0.07,,SKC,0.10,VWS V13.01,2013-02-25 11:00:00,
2013-02-25 03:01:00,42.6,38.1,30.04,SSW,194,0.0,0.0,84,0.07,,SKC,0.10,VWS V13.01,2013-02-25 11:01:00,
2013-02-25 03:10:00,42.6,38.4,30.04,SW,232,0.0,0.0,85,0.05,,SKC,0.10,VWS V13.01,2013-02-25 11:10:00,
2013-02-25 03:11:00,42.6,38.4,30.04,SW,232,0.0,0.0,85,0.05,,SKC,0.10,VWS V13.01,2013-02-25 11:11:00,
2013-02-25 03:20:00,42.5,38.6,30.05,SW,218,0.0,0.0,86,0.03,,SKC,0.10,VWS V13.01,2013-02-25 11:20:00,
2013-02-25 03:21:00,42.5,38.6,30.05,SW,218,0.0,0.0,86,0.03,,SKC,0.10,VWS V13.01,2013-02-25 11:21:00,
2013-02-25 03:30:00,42.3,38.7,30.06,SSW,211,0.0,0.0,87,0.01,,SKC,0.10,VWS V13.01,2013-02-25 11:30:00,
2013-02-25 03:31:00,42.3,38.7,30.06,SSW,211,0.0,0.0,87,0.01,,SKC,0.10,VWS V13.01,2013-02-25 11:31:00,
2013-02-25 03:40:00,42.1,38.5,30.06,SW,216,0.0,0.0,87,0.00,,SKC,0.10,VWS V13.01,2013-02-25 11:40:00,
2013-02-25 03:41:00,42.1,38.5,30.06,SW,216,0.0,0.0,87,0.00,,SKC,0.10,VWS V13.01,2013-02-25 11:41:00,
2013-02-25 03:50:00,41.9,38.6,30.06,SW,214,0.0,0.0,88,0.00,,SKC,0.10,VWS V13.01,2013-02-25 11:50:00,
2013-02-25 03:51:00,41.9,38.6,30.06,SW,214,0.0,0.0,88,0.00,,SKC,0.10,VWS V13.01,2013-02-25 11:51:00,
2013-02-25 04:00:00,41.9,38.9,30.08,SSW,211,0.0,0.0,89,0.00,,SKC,0.10,VWS V13.01,2013-02-25 12:00:00,
2013-02-25 04:01:00,41.9,38.9,30.08,SSW,211,0.0,0.0,89,0.00,,SKC,0.10,VWS V13.01,2013-02-25 12:01:00,
2013-02-25 04:10:00,41.8,38.8,30.08,WSW,248,0.0,0.0,89,0.00,,SKC,0.10,VWS V13.01,2013-02-25 12:10:00,
2013-02-25 04:11:00,41.8,38.8,30.08,WSW,248,0.0,0.0,89,0.00,,SKC,0.10,VWS V13.01,2013-02-25 12:11:00,
2013-02-25 04:20:00,41.8,38.8,30.09,WSW,256,0.0,0.0,89,0.00,,SKC,0.10,VWS V13.01,2013-02-25 12:20:00,
2013-02-25 04:21:00,41.8,38.8,30.09,WSW,256,0.0,0.0,89,0.00,,SKC,0.10,VWS V13.01,2013-02-25 12:21:00,
2013-02-25 04:30:00,41.6,38.3,30.10,WSW,238,0.0,0.0,88,0.00,,SKC,0.10,VWS V13.01,2013-02-25 12:30:00,
2013-02-25 04:31:00,41.6,38.3,30.10,WSW,238,0.0,0.0,88,0.00,,SKC,0.10,VWS V13.01,2013-02-25 12:31:00,
2013-02-25 04:40:00,41.6,38.3,30.10,SW,232,0.0,0.0,88,0.00,,SKC,0.10,VWS V13.01,2013-02-25 12:40:00,
2013-02-25 04:41:00,41.6,38.3,30.10,SW,232,0.0,0.0,88,0.00,,SKC,0.10,VWS V13.01,2013-02-25 12:41:00,
2013-02-25 04:50:00,41.6,38.0,30.11,SW,232,0.0,0.0,87,0.01,,SKC,0.11,VWS V13.01,2013-02-25 12:50:00,
2013-02-25 04:51:00,41.6,38.0,30.11,SW,232,0.0,0.0,87,0.01,,SKC,0.11,VWS V13.01,2013-02-25 12:51:00,
2013-02-25 05:00:00,41.6,38.0,30.12,SW,231,0.0,0.0,87,0.01,,SKC,0.11,VWS V13.01,2013-02-25 13:00:00,
2013-02-25 05:01:00,41.6,38.0,30.12,SW,231,0.0,0.0,87,0.01,,SKC,0.11,VWS V13.01,2013-02-25 13:01:00,
2013-02-25 05:10:00,41.5,37.9,30.12,SW,231,0.0,0.0,87,0.01,,SKC,0.11,VWS V13.01,2013-02-25 13:10:00,
2013-02-25 05:11:00,41.5,37.9,30.12,SW,231,0.0,0.0,87,0.01,,SKC,0.11,VWS V13.01,2013-02-25 13:11:00,
2013-02-25 05:20:00,41.3,37.7,30.12,SW,219,0.0,0.0,87,0.01,,SKC,0.11,VWS V13.01,2013-02-25 13:20:00,
2013-02-25 05:21:00,41.3,37.7,30.12,SW,219,0.0,0.0,87,0.01,,SKC,0.11,VWS V13.01,2013-02-25 13:21:00,
2013-02-25 05:30:00,41.2,37.6,30.12,SW,219,0.0,0.0,87,0.01,,SKC,0.11,VWS V13.01,2013-02-25 13:30:00,
2013-02-25 05:31:00,41.2,37.6,30.12,SW,219,0.0,0.0,87,0.01,,SKC,0.11,VWS V13.01,2013-02-25 13:31:00,
2013-02-25 05:40:00,41.2,37.6,30.12,SSW,213,0.0,0.0,87,0.01,,SKC,0.11,VWS V13.01,2013-02-25 13:40:00,
2013-02-25 05:41:00,41.2,37.6,30.12,SSW,213,0.0,0.0,87,0.01,,SKC,0.11,VWS V13.01,2013-02-25 13:41:00,
2013-02-25 05:50:00,41.1,37.5,30.14,SW,227,0.0,0.0,87,0.01,,SKC,0.11,VWS V13.01,2013-02-25 13:50:00,
2013-02-25 05:51:00,41.1,37.5,30.14,SW,227,0.0,0.0,87,0.01,,SKC,0.11,VWS V13.01,2013-02-25 13:51:00,
2013-02-25 06:00:00,41.1,37.5,30.14,WSW,249,0.0,0.0,87,0.00,,SKC,0.11,VWS V13.01,2013-02-25 14:00:00,
2013-02-25 06:01:00,41.1,37.5,30.14,WSW,249,0.0,0.0,87,0.00,,SKC,0.11,VWS V13.01,2013-02-25 14:01:00,
2013-02-25 06:10:00,41.1,37.2,30.14,SW,220,0.0,0.0,86,0.00,,SKC,0.11,VWS V13.01,2013-02-25 14:10:00,
2013-02-25 06:20:00,41.1,37.2,30.15,SW,225,0.0,0.0,86,0.00,,SKC,0.11,VWS V13.01,2013-02-25 14:20:00,
2013-02-25 06:21:00,41.1,37.2,30.15,SW,225,0.0,0.0,86,0.00,,SKC,0.11,VWS V13.01,2013-02-25 14:21:00,
2013-02-25 06:30:00,41.1,36.9,30.16,SW,231,0.0,0.0,85,0.00,,SKC,0.11,VWS V13.01,2013-02-25 14:30:00,
2013-02-25 06:31:00,41.1,36.9,30.16,SW,231,0.0,0.0,85,0.00,,SKC,0.11,VWS V13.01,2013-02-25 14:31:00,
2013-02-25 06:40:00,40.9,36.8,30.16,WSW,252,0.0,0.0,85,0.00,,SKC,0.11,VWS V13.01,2013-02-25 14:40:00,
2013-02-25 06:41:00,40.9,36.8,30.16,WSW,252,0.0,0.0,85,0.00,,SKC,0.11,VWS V13.01,2013-02-25 14:41:00,
2013-02-25 06:50:00,40.9,36.8,30.16,SSW,205,0.0,0.0,85,0.00,,SKC,0.11,VWS V13.01,2013-02-25 14:50:00,
2013-02-25 06:51:00,40.9,36.8,30.16,SSW,205,0.0,0.0,85,0.00,,SKC,0.11,VWS V13.01,2013-02-25 14:51:00,
2013-02-25 07:00:00,40.9,36.8,30.16,SW,229,0.0,0.0,85,0.00,,SKC,0.11,VWS V13.01,2013-02-25 15:00:00,
2013-02-25 07:01:00,40.9,36.8,30.16,SW,229,0.0,0.0,85,0.00,,SKC,0.11,VWS V13.01,2013-02-25 15:01:00,
2013-02-25 07:10:00,40.9,36.8,30.16,SW,216,0.0,0.0,85,0.00,,SKC,0.11,VWS V13.01,2013-02-25 15:10:00,
2013-02-25 07:11:00,40.9,36.8,30.16,SW,216,0.0,0.0,85,0.00,,SKC,0.11,VWS V13.01,2013-02-25 15:11:00,
2013-02-25 07:20:00,40.8,36.7,30.17,SSW,193,0.0,0.0,85,0.00,,SKC,0.11,VWS V13.01,2013-02-25 15:20:00,
2013-02-25 07:21:00,40.8,36.7,30.17,SSW,193,0.0,0.0,85,0.00,,SKC,0.11,VWS V13.01,2013-02-25 15:21:00,
2013-02-25 07:30:00,40.9,36.8,30.17,WSW,248,0.0,0.0,85,0.00,,SKC,0.11,VWS V13.01,2013-02-25 15:30:00,
2013-02-25 07:31:00,40.9,36.8,30.17,WSW,248,0.0,0.0,85,0.00,,SKC,0.11,VWS V13.01,2013-02-25 15:31:00,
2013-02-25 07:40:00,40.8,36.7,30.17,SW,235,0.0,0.0,85,0.00,,SKC,0.11,VWS V13.01,2013-02-25 15:40:00,
2013-02-25 07:41:00,40.8,36.7,30.17,SW,235,0.0,0.0,85,0.00,,SKC,0.11,VWS V13.01,2013-02-25 15:41:00,
2013-02-25 07:50:00,40.6,36.5,30.17,WSW,238,0.0,0.0,85,0.00,,SKC,0.11,VWS V13.01,2013-02-25 15:50:00,
2013-02-25 07:51:00,40.6,36.5,30.17,WSW,238,0.0,0.0,85,0.00,,SKC,0.11,VWS V13.01,2013-02-25 15:51:00,
2013-02-25 08:00:00,40.6,36.5,30.18,SW,218,0.0,0.0,85,0.00,,SKC,0.11,VWS V13.01,2013-02-25 16:00:00,
2013-02-25 08:01:00,40.6,36.5,30.18,SW,218,0.0,0.0,85,0.00,,SKC,0.11,VWS V13.01,2013-02-25 16:01:00,
2013-02-25 08:10:00,40.6,36.8,30.18,SW,224,0.0,0.0,86,0.00,,SKC,0.11,VWS V13.01,2013-02-25 16:10:00,
2013-02-25 08:11:00,40.6,36.8,30.18,SW,224,0.0,0.0,86,0.00,,SKC,0.11,VWS V13.01,2013-02-25 16:11:00,
2013-02-25 08:20:00,40.8,37.2,30.19,SSW,210,0.0,0.0,87,0.00,,SKC,0.11,VWS V13.01,2013-02-25 16:20:00,
2013-02-25 08:21:00,40.8,37.2,30.19,SSW,210,0.0,0.0,87,0.00,,SKC,0.11,VWS V13.01,2013-02-25 16:21:00,
2013-02-25 08:30:00,40.8,37.2,30.19,SW,232,0.0,0.0,87,0.00,,SKC,0.11,VWS V13.01,2013-02-25 16:30:00,
2013-02-25 08:31:00,40.8,37.2,30.19,SW,232,0.0,0.0,87,0.00,,SKC,0.11,VWS V13.01,2013-02-25 16:31:00,
2013-02-25 08:40:00,40.9,37.0,30.19,WSW,250,0.0,0.0,86,0.00,,SKC,0.11,VWS V13.01,2013-02-25 16:40:00,
2013-02-25 08:41:00,40.9,37.0,30.19,WSW,250,0.0,0.0,86,0.00,,SKC,0.11,VWS V13.01,2013-02-25 16:41:00,
2013-02-25 08:50:00,41.2,37.3,30.20,SSW,203,0.0,0.0,86,0.00,,SKC,0.11,VWS V13.01,2013-02-25 16:50:00,
2013-02-25 08:51:00,41.2,37.3,30.20,SSW,203,0.0,0.0,86,0.00,,SKC,0.11,VWS V13.01,2013-02-25 16:51:00,
2013-02-25 09:00:00,41.5,37.3,30.20,SW,229,0.0,0.0,85,0.00,,SKC,0.11,VWS V13.01,2013-02-25 17:00:00,
2013-02-25 09:01:00,41.5,37.3,30.20,SW,229,0.0,0.0,85,0.00,,SKC,0.11,VWS V13.01,2013-02-25 17:01:00,
2013-02-25 09:10:00,41.5,37.3,30.20,SW,214,0.0,0.0,85,0.00,,SKC,0.11,VWS V13.01,2013-02-25 17:10:00,
2013-02-25 09:11:00,41.5,37.3,30.20,SW,214,0.0,0.0,85,0.00,,SKC,0.11,VWS V13.01,2013-02-25 17:11:00,
2013-02-25 09:20:00,41.2,37.0,30.22,SW,224,0.0,0.0,85,0.00,,SKC,0.11,VWS V13.01,2013-02-25 17:20:00,
2013-02-25 09:21:00,41.2,37.0,30.22,SW,224,0.0,0.0,85,0.00,,SKC,0.11,VWS V13.01,2013-02-25 17:21:00,
2013-02-25 09:30:00,41.1,36.9,30.21,WSW,245,0.0,0.0,85,0.00,,SKC,0.11,VWS V13.01,2013-02-25 17:30:00,
2013-02-25 09:31:00,41.1,36.9,30.21,WSW,245,0.0,0.0,85,0.00,,SKC,0.11,VWS V13.01,2013-02-25 17:31:00,
2013-02-25 09:40:00,41.1,36.9,30.21,West,263,0.0,0.0,85,0.00,,SKC,0.11,VWS V13.01,2013-02-25 17:40:00,
2013-02-25 09:41:00,41.1,36.9,30.21,West,263,0.0,0.0,85,0.00,,SKC,0.11,VWS V13.01,2013-02-25 17:41:00,
2013-02-25 09:50:00,41.3,36.8,30.22,SSW,202,0.0,0.0,84,0.00,,SKC,0.11,VWS V13.01,2013-02-25 17:50:00,
2013-02-25 09:51:00,41.3,36.8,30.22,SSW,202,0.0,0.0,84,0.00,,SKC,0.11,VWS V13.01,2013-02-25 17:51:00,
2013-02-25 10:00:00,41.6,37.1,30.22,SW,236,0.0,0.0,84,0.00,,SKC,0.11,VWS V13.01,2013-02-25 18:00:00,
2013-02-25 10:01:00,41.6,37.1,30.22,SW,236,0.0,0.0,84,0.00,,SKC,0.11,VWS V13.01,2013-02-25 18:01:00,
2013-02-25 10:10:00,41.8,37.3,30.22,SSW,195,0.0,0.0,84,0.00,,SKC,0.11,VWS V13.01,2013-02-25 18:10:00,
2013-02-25 10:11:00,41.8,37.3,30.22,SSW,195,0.0,0.0,84,0.00,,SKC,0.11,VWS V13.01,2013-02-25 18:11:00,
2013-02-25 10:20:00,42.1,37.6,30.22,SW,226,0.0,0.0,84,0.00,,SKC,0.11,VWS V13.01,2013-02-25 18:20:00,
2013-02-25 10:21:00,42.1,37.6,30.22,SW,226,0.0,0.0,84,0.00,,SKC,0.11,VWS V13.01,2013-02-25 18:21:00,
2013-02-25 10:30:00,42.2,37.7,30.22,SW,214,0.0,0.0,84,0.00,,SKC,0.11,VWS V13.01,2013-02-25 18:30:00,
2013-02-25 10:31:00,42.2,37.7,30.22,SW,214,0.0,0.0,84,0.00,,SKC,0.11,VWS V13.01,2013-02-25 18:31:00,
2013-02-25 10:40:00,42.5,37.7,30.22,West,277,0.0,0.0,83,0.00,,SKC,0.11,VWS V13.01,2013-02-25 18:40:00,
2013-02-25 10:41:00,42.5,37.7,30.22,West,277,0.0,0.0,83,0.00,,SKC,0.11,VWS V13.01,2013-02-25 18:41:00,
2013-02-25 10:50:00,42.8,37.7,30.23,SW,214,0.0,0.0,82,0.00,,SKC,0.11,VWS V13.01,2013-02-25 18:50:00,
2013-02-25 10:51:00,42.8,37.7,30.23,SW,214,0.0,0.0,82,0.00,,SKC,0.11,VWS V13.01,2013-02-25 18:51:00,
2013-02-25 11:00:00,42.8,37.4,30.23,SW,217,0.0,0.0,81,0.00,,SKC,0.11,VWS V13.01,2013-02-25 19:00:00,
2013-02-25 11:01:00,42.8,37.4,30.23,SW,217,0.0,0.0,81,0.00,,SKC,0.11,VWS V13.01,2013-02-25 19:01:00,
2013-02-25 11:10:00,43.1,37.7,30.23,SW,233,0.0,0.0,81,0.00,,SKC,0.11,VWS V13.01,2013-02-25 19:10:00,
2013-02-25 11:11:00,43.1,37.7,30.23,SW,233,0.0,0.0,81,0.00,,SKC,0.11,VWS V13.01,2013-02-25 19:11:00,
2013-02-25 11:20:00,42.8,37.4,30.23,SSW,206,0.0,0.0,81,0.00,,SKC,0.11,VWS V13.01,2013-02-25 19:20:00,
2013-02-25 11:21:00,42.8,37.4,30.23,SSW,206,0.0,0.0,81,0.00,,SKC,0.11,VWS V13.01,2013-02-25 19:21:00,
2013-02-25 11:30:00,43.5,37.4,30.23,West,267,0.0,0.0,79,0.00,,SKC,0.11,VWS V13.01,2013-02-25 19:30:00,
2013-02-25 11:31:00,43.5,37.4,30.23,West,267,0.0,0.0,79,0.00,,SKC,0.11,VWS V13.01,2013-02-25 19:31:00,
2013-02-25 11:40:00,43.5,36.1,30.23,WSW,238,0.0,0.0,75,0.00,,SKC,0.11,VWS V13.01,2013-02-25 19:40:00,
2013-02-25 11:41:00,43.5,36.1,30.23,WSW,238,0.0,0.0,75,0.00,,SKC,0.11,VWS V13.01,2013-02-25 19:41:00,
2013-02-25 11:50:00,43.5,36.1,30.23,NW,311,0.0,0.0,75,0.00,,SKC,0.11,VWS V13.01,2013-02-25 19:50:00,
2013-02-25 11:51:00,43.5,36.1,30.23,NW,311,0.0,0.0,75,0.00,,SKC,0.11,VWS V13.01,2013-02-25 19:51:00,
2013-02-25 12:00:00,43.1,37.0,30.23,SW,233,0.0,0.0,79,0.00,,SKC,0.11,VWS V13.01,2013-02-25 20:00:00,
2013-02-25 12:01:00,43.1,37.0,30.23,SW,233,0.0,0.0,79,0.00,,SKC,0.11,VWS V13.01,2013-02-25 20:01:00,
2013-02-25 12:10:00,43.6,37.8,30.23,SW,214,0.0,0.0,80,0.00,,SKC,0.11,VWS V13.01,2013-02-25 20:10:00,
2013-02-25 12:11:00,43.6,37.8,30.23,SW,214,0.0,0.0,80,0.00,,SKC,0.11,VWS V13.01,2013-02-25 20:11:00,
2013-02-25 12:20:00,44.5,38.7,30.23,SW,236,0.0,0.0,80,0.00,,SKC,0.11,VWS V13.01,2013-02-25 20:20:00,
2013-02-25 12:21:00,44.5,38.7,30.23,SW,236,0.0,0.0,80,0.00,,SKC,0.11,VWS V13.01,2013-02-25 20:21:00,
2013-02-25 12:30:00,46.4,38.2,30.22,WSW,250,0.0,0.0,73,0.00,,SKC,0.11,VWS V13.01,2013-02-25 20:30:00,
2013-02-25 12:31:00,46.4,38.2,30.22,WSW,250,0.0,0.0,73,0.00,,SKC,0.11,VWS V13.01,2013-02-25 20:31:00,
2013-02-25 12:40:00,46.0,37.1,30.22,West,275,0.0,0.0,71,0.00,,SKC,0.11,VWS V13.01,2013-02-25 20:40:00,
2013-02-25 12:41:00,46.0,37.1,30.22,West,275,0.0,0.0,71,0.00,,SKC,0.11,VWS V13.01,2013-02-25 20:41:00,
2013-02-25 12:50:00,43.9,36.2,30.22,SSW,212,0.0,0.0,74,0.00,,SKC,0.11,VWS V13.01,2013-02-25 20:50:00,
2013-02-25 12:51:00,43.9,36.2,30.22,SSW,212,0.0,0.0,74,0.00,,SKC,0.11,VWS V13.01,2013-02-25 20:51:00,
2013-02-25 13:00:00,43.5,36.1,30.22,South,170,0.0,0.0,75,0.00,,SKC,0.11,VWS V13.01,2013-02-25 21:00:00,
2013-02-25 13:01:00,43.5,36.1,30.22,South,170,0.0,0.0,75,0.00,,SKC,0.11,VWS V13.01,2013-02-25 21:01:00,
2013-02-25 13:10:00,44.3,37.2,30.22,SSW,208,0.0,0.0,76,0.00,,SKC,0.11,VWS V13.01,2013-02-25 21:10:00,
2013-02-25 13:11:00,44.3,37.2,30.22,SSW,208,0.0,0.0,76,0.00,,SKC,0.11,VWS V13.01,2013-02-25 21:11:00,
2013-02-25 13:20:00,46.2,37.0,30.22,NW,309,0.0,0.0,70,0.00,,SKC,0.11,VWS V13.01,2013-02-25 21:20:00,
2013-02-25 13:21:00,46.2,37.0,30.22,NW,309,0.0,0.0,70,0.00,,SKC,0.11,VWS V13.01,2013-02-25 21:21:00,
2013-02-25 13:30:00,45.5,36.7,30.23,NNW,344,0.0,0.0,71,0.00,,SKC,0.11,VWS V13.01,2013-02-25 21:30:00,
2013-02-25 13:31:00,45.5,36.7,30.23,NNW,344,0.0,0.0,71,0.00,,SKC,0.11,VWS V13.01,2013-02-25 21:31:00,
2013-02-25 13:40:00,45.2,36.7,30.23,NNW,338,0.0,0.0,72,0.00,,SKC,0.11,VWS V13.01,2013-02-25 21:40:00,
2013-02-25 13:41:00,45.2,36.7,30.23,NNW,338,0.0,0.0,72,0.00,,SKC,0.11,VWS V13.01,2013-02-25 21:41:00,
2013-02-25 13:50:00,46.5,35.8,30.23,SSW,209,0.0,0.0,66,0.00,,SKC,0.11,VWS V13.01,2013-02-25 21:50:00,
2013-02-25 13:51:00,46.5,35.8,30.23,SSW,209,0.0,0.0,66,0.00,,SKC,0.11,VWS V13.01,2013-02-25 21:51:00,
2013-02-25 14:00:00,47.7,36.9,30.23,West,264,0.0,0.0,66,0.00,,SKC,0.11,VWS V13.01,2013-02-25 22:00:00,
2013-02-25 14:01:00,47.7,36.9,30.23,West,264,0.0,0.0,66,0.00,,SKC,0.11,VWS V13.01,2013-02-25 22:01:00,
2013-02-25 14:10:00,46.4,35.7,30.23,NW,321,0.0,0.0,66,0.01,,SKC,0.12,VWS V13.01,2013-02-25 22:10:00,
2013-02-25 14:11:00,46.4,35.7,30.23,NW,321,0.0,0.0,66,0.01,,SKC,0.12,VWS V13.01,2013-02-25 22:11:00,
2013-02-25 14:20:00,43.5,36.1,30.24,NW,321,0.0,0.0,75,0.01,,SKC,0.12,VWS V13.01,2013-02-25 22:20:00,
2013-02-25 14:21:00,43.5,36.1,30.24,NW,321,0.0,0.0,75,0.01,,SKC,0.12,VWS V13.01,2013-02-25 22:21:00,
2013-02-25 14:31:00,44.8,37.0,30.23,SW,231,0.0,0.0,74,0.01,,SKC,0.12,VWS V13.01,2013-02-25 22:31:00,
2013-02-25 14:40:00,44.2,36.1,30.23,South,179,0.0,0.0,73,0.01,,SKC,0.12,VWS V13.01,2013-02-25 22:40:00,
2013-02-25 14:41:00,44.2,36.1,30.23,South,179,0.0,0.0,73,0.01,,SKC,0.12,VWS V13.01,2013-02-25 22:41:00,
2013-02-25 14:50:00,46.1,36.1,30.23,West,269,0.0,0.0,68,0.01,,SKC,0.12,VWS V13.01,2013-02-25 22:50:00,
2013-02-25 14:51:00,46.1,36.1,30.23,West,269,0.0,0.0,68,0.01,,SKC,0.12,VWS V13.01,2013-02-25 22:51:00,
2013-02-25 15:00:00,47.1,33.1,30.23,WNW,303,0.0,0.0,58,0.01,,SKC,0.12,VWS V13.01,2013-02-25 23:00:00,
2013-02-25 15:01:00,47.1,33.1,30.23,WNW,303,0.0,0.0,58,0.01,,SKC,0.12,VWS V13.01,2013-02-25 23:01:00,
2013-02-25 15:10:00,47.4,32.5,30.23,NNW,337,0.0,0.0,56,0.01,,SKC,0.12,VWS V13.01,2013-02-25 23:10:00,
2013-02-25 15:11:00,47.4,32.5,30.23,NNW,337,0.0,0.0,56,0.01,,SKC,0.12,VWS V13.01,2013-02-25 23:11:00,
2013-02-25 15:24:00,48.3,31.5,30.23,North,0,0.0,0.0,52,0.00,,SKC,0.12,VWS V13.01,2013-02-25 23:24:00,
2013-02-25 15:31:00,48.3,31.5,30.24,WNW,282,0.0,0.0,52,0.00,,SKC,0.12,VWS V13.01,2013-02-25 23:31:00,
2013-02-25 15:41:00,47.3,32.4,30.24,SW,234,0.0,0.0,56,0.00,,SKC,0.12,VWS V13.01,2013-02-25 23:41:00,
2013-02-25 15:48:00,46.5,33.0,30.24,WSW,253,0.0,0.0,59,0.00,,SKC,0.12,VWS V13.01,2013-02-25 23:48:00,
2013-02-25 15:58:00,45.7,33.8,30.25,WSW,253,0.0,0.0,63,0.00,,SKC,0.12,VWS V13.01,2013-02-25 23:58:00,
2013-02-25 16:08:00,45.1,34.4,30.25,WNW,295,0.0,0.0,66,0.00,,SKC,0.12,VWS V13.01,2013-02-26 00:08:00,
2013-02-25 16:18:00,44.2,34.7,30.27,WNW,290,0.0,0.0,69,0.00,,SKC,0.12,VWS V13.01,2013-02-26 00:18:00,
2013-02-25 16:28:00,44.3,34.8,30.26,WNW,283,0.0,0.0,69,0.00,,SKC,0.12,VWS V13.01,2013-02-26 00:28:00,
2013-02-25 16:38:00,44.3,34.8,30.26,West,267,0.0,0.0,69,0.00,,SKC,0.12,VWS V13.01,2013-02-26 00:38:00,
2013-02-25 16:48:00,44.2,35.8,30.27,SW,232,0.0,0.0,72,0.00,,SKC,0.12,VWS V13.01,2013-02-26 00:48:00,
2013-02-25 16:58:00,43.9,35.8,30.27,WSW,246,0.0,0.0,73,0.00,,SKC,0.12,VWS V13.01,2013-02-26 00:58:00,
2013-02-25 17:08:00,43.8,36.4,30.27,WSW,237,0.0,0.0,75,0.00,,SKC,0.12,VWS V13.01,2013-02-26 01:08:00,
2013-02-25 17:18:00,43.6,35.9,30.27,West,263,0.0,0.0,74,0.00,,SKC,0.12,VWS V13.01,2013-02-26 01:18:00,
2013-02-25 17:28:00,43.3,34.5,30.27,NW,315,0.0,0.0,71,0.00,,SKC,0.12,VWS V13.01,2013-02-26 01:28:00,
2013-02-25 17:38:00,43.1,34.0,30.27,West,274,0.0,0.0,70,0.00,,SKC,0.12,VWS V13.01,2013-02-26 01:38:00,
2013-02-25 17:48:00,42.6,33.9,30.28,WNW,302,0.0,0.0,71,0.00,,SKC,0.12,VWS V13.01,2013-02-26 01:48:00,
2013-02-25 17:58:00,42.1,33.7,30.28,WNW,300,0.0,0.0,72,0.00,,SKC,0.12,VWS V13.01,2013-02-26 01:58:00,
2013-02-25 18:08:00,41.6,33.9,30.28,WSW,240,0.0,0.0,74,0.00,,SKC,0.12,VWS V13.01,2013-02-26 02:08:00,
2013-02-25 18:18:00,41.3,34.0,30.28,West,277,0.0,0.0,75,0.00,,SKC,0.12,VWS V13.01,2013-02-26 02:18:00,
2013-02-25 18:28:00,41.3,34.0,30.29,WNW,302,0.0,0.0,75,0.00,,SKC,0.12,VWS V13.01,2013-02-26 02:28:00,
2013-02-25 18:38:00,41.5,34.5,30.29,WNW,301,0.0,0.0,76,0.00,,SKC,0.12,VWS V13.01,2013-02-26 02:38:00,
2013-02-25 18:48:00,41.3,34.7,30.29,SW,219,0.0,0.0,77,0.00,,SKC,0.12,VWS V13.01,2013-02-26 02:48:00,
2013-02-25 18:58:00,41.1,34.8,30.30,SW,219,0.0,0.0,78,0.00,,SKC,0.12,VWS V13.01,2013-02-26 02:58:00,
2013-02-25 19:08:00,40.8,34.8,30.30,SW,219,0.0,0.0,79,0.00,,SKC,0.12,VWS V13.01,2013-02-26 03:08:00,
2013-02-25 19:18:00,40.5,34.8,30.30,SW,219,0.0,0.0,80,0.00,,SKC,0.12,VWS V13.01,2013-02-26 03:18:00,
2013-02-25 19:28:00,40.3,34.9,30.30,SW,219,0.0,0.0,81,0.00,,SKC,0.12,VWS V13.01,2013-02-26 03:28:00,
2013-02-25 19:38:00,40.2,34.8,30.30,SW,219,0.0,0.0,81,0.00,,SKC,0.12,VWS V13.01,2013-02-26 03:38:00,
2013-02-25 19:48:00,40.2,35.2,30.30,SW,219,0.0,0.0,82,0.00,,SKC,0.12,VWS V13.01,2013-02-26 03:48:00,
2013-02-25 19:58:00,40.1,35.1,30.30,SW,219,0.0,0.0,82,0.00,,SKC,0.12,VWS V13.01,2013-02-26 03:58:00,
2013-02-25 20:08:00,39.9,34.9,30.30,SW,219,0.0,0.0,82,0.00,,SKC,0.12,VWS V13.01,2013-02-26 04:08:00,
2013-02-25 20:18:00,39.8,34.8,30.31,SW,219,0.0,0.0,82,0.00,,SKC,0.12,VWS V13.01,2013-02-26 04:18:00,
2013-02-25 20:28:00,39.8,34.8,30.31,SW,219,0.0,0.0,82,0.00,,SKC,0.12,VWS V13.01,2013-02-26 04:28:00,
2013-02-25 20:38:00,39.6,34.9,30.31,SW,219,0.0,0.0,83,0.00,,SKC,0.12,VWS V13.01,2013-02-26 04:38:00,
2013-02-25 20:48:00,39.5,34.8,30.31,SW,219,0.0,0.0,83,0.00,,SKC,0.12,VWS V13.01,2013-02-26 04:48:00,
2013-02-25 20:58:00,39.2,34.8,30.32,SW,221,0.0,0.0,84,0.00,,SKC,0.12,VWS V13.01,2013-02-26 04:58:00,
2013-02-25 21:08:00,39.1,34.7,30.32,SW,221,0.0,0.0,84,0.00,,SKC,0.12,VWS V13.01,2013-02-26 05:08:00,
2013-02-25 21:18:00,38.8,34.7,30.32,SW,221,0.0,0.0,85,0.00,,SKC,0.12,VWS V13.01,2013-02-26 05:18:00,
2013-02-25 21:28:00,38.6,34.5,30.33,SW,221,0.0,0.0,85,0.00,,SKC,0.12,VWS V13.01,2013-02-26 05:28:00,
2013-02-25 21:38:00,38.3,34.5,30.33,SW,221,0.0,0.0,86,0.00,,SKC,0.12,VWS V13.01,2013-02-26 05:38:00,
2013-02-25 21:48:00,38.2,34.4,30.33,SW,221,0.0,0.0,86,0.00,,SKC,0.12,VWS V13.01,2013-02-26 05:48:00,
2013-02-25 21:58:00,38.3,34.5,30.33,SW,221,0.0,0.0,86,0.00,,SKC,0.12,VWS V13.01,2013-02-26 05:58:00,
2013-02-25 22:08:00,38.3,34.5,30.33,SW,221,0.0,0.0,86,0.00,,SKC,0.12,VWS V13.01,2013-02-26 06:08:00,
2013-02-25 22:18:00,38.3,34.5,30.33,SW,221,0.0,0.0,86,0.00,,SKC,0.12,VWS V13.01,2013-02-26 06:18:00,
2013-02-25 22:28:00,38.2,34.4,30.33,SW,221,0.0,0.0,86,0.00,,SKC,0.12,VWS V13.01,2013-02-26 06:28:00,
2013-02-25 22:38:00,38.0,34.2,30.33,SW,221,0.0,0.0,86,0.00,,SKC,0.12,VWS V13.01,2013-02-26 06:38:00,
2013-02-25 22:48:00,37.5,33.7,30.33,SW,221,0.0,0.0,86,0.00,,SKC,0.12,VWS V13.01,2013-02-26 06:48:00,
2013-02-25 22:58:00,37.3,33.8,30.33,SW,221,0.0,0.0,87,0.00,,SKC,0.12,VWS V13.01,2013-02-26 06:58:00,
2013-02-25 23:08:00,37.0,33.5,30.33,SW,221,0.0,0.0,87,0.00,,SKC,0.12,VWS V13.01,2013-02-26 07:08:00,
2013-02-25 23:18:00,36.8,33.3,30.33,SW,221,0.0,0.0,87,0.00,,SKC,0.12,VWS V13.01,2013-02-26 07:18:00,
2013-02-25 23:28:00,36.9,33.4,30.33,SW,221,0.0,0.0,87,0.00,,SKC,0.12,VWS V13.01,2013-02-26 07:28:00,
2013-02-25 23:38:00,36.3,32.8,30.33,SW,221,0.0,0.0,87,0.00,,SKC,0.12,VWS V13.01,2013-02-26 07:38:00,
2013-02-25 23:48:00,36.0,32.5,30.33,SW,221,0.0,0.0,87,0.00,,SKC,0.12,VWS V13.01,2013-02-26 07:48:00,
2013-02-25 23:58:00,35.5,32.0,30.34,SW,221,0.0,0.0,87,0.00,,SKC,0.00,VWS V13.01,2013-02-26 07:58:00,